TimeCST,TemperatureF,Dew PointF,Humidity,Sea Level PressureIn,VisibilityMPH,Wind Direction,Wind SpeedMPH,Gust SpeedMPH,PrecipitationIn,Events,Conditions,WindDirDegrees,DateUTC
12:15 AM,35.6,28.4,75,30.21,10.0,Calm,Calm,-,N/A,,Clear,0,2012-11-04 05:15:00
12:35 AM,35.6,28.4,75,30.21,10.0,Calm,Calm,-,N/A,,Scattered Clouds,0,2012-11-04 05:35:00
12:55 AM,33.8,28.4,81,30.20,7.0,Calm,Calm,-,N/A,,Clear,0,2012-11-04 05:55:00
1:15 AM,33.8,28.4,81,30.20,10.0,Calm,Calm,-,N/A,,Clear,0,2012-11-04 06:15:00
1:35 AM,35.6,28.4,75,30.20,10.0,Calm,Calm,-,N/A,,Scattered Clouds,0,2012-11-04 06:35:00
1:55 AM,35.6,30.2,81,30.21,10.0,Calm,Calm,-,N/A,,Scattered Clouds,0,2012-11-04 06:55:00
1:15 AM,37.4,30.2,75,30.20,10.0,Calm,Calm,-,N/A,,Scattered Clouds,0,2012-11-04 07:15:00
1:35 AM,37.4,30.2,75,30.21,10.0,Calm,Calm,-,N/A,,Scattered Clouds,0,2012-11-04 07:35:00
1:55 AM,37.4,32.0,81,30.21,10.0,Calm,Calm,-,N/A,,Overcast,0,2012-11-04 07:55:00
2:15 AM,37.4,32.0,81,30.21,7.0,Calm,Calm,-,N/A,,Overcast,0,2012-11-04 08:15:00
2:35 AM,39.2,33.8,81,30.21,10.0,Calm,Calm,-,N/A,,Overcast,0,2012-11-04 08:35:00
2:55 AM,39.2,33.8,81,30.21,10.0,Calm,Calm,-,N/A,,Mostly Cloudy,0,2012-11-04 08:55:00
3:15 AM,39.2,33.8,81,30.21,10.0,Calm,Calm,-,N/A,,Mostly Cloudy,0,2012-11-04 09:15:00
3:35 AM,39.2,33.8,81,30.21,10.0,Calm,Calm,-,N/A,,Scattered Clouds,0,2012-11-04 09:35:00
3:55 AM,39.2,33.8,81,30.20,10.0,Calm,Calm,-,N/A,,Scattered Clouds,0,2012-11-04 09:55:00
4:15 AM,39.2,33.8,81,30.20,10.0,Calm,Calm,-,N/A,,Scattered Clouds,0,2012-11-04 10:15:00
4:35 AM,39.2,33.8,81,30.20,7.0,Calm,Calm,-,N/A,,Scattered Clouds,0,2012-11-04 10:35:00
4:55 AM,39.2,33.8,81,30.20,10.0,Calm,Calm,-,N/A,,Scattered Clouds,0,2012-11-04 10:55:00
5:15 AM,39.2,33.8,81,30.20,7.0,Calm,Calm,-,N/A,,Mostly Cloudy,0,2012-11-04 11:15:00
5:35 AM,39.2,33.8,81,30.21,7.0,Calm,Calm,-,N/A,,Scattered Clouds,0,2012-11-04 11:35:00
5:55 AM,39.2,33.8,81,30.20,7.0,Calm,Calm,-,N/A,,Scattered Clouds,0,2012-11-04 11:55:00
6:15 AM,39.2,33.8,81,30.20,7.0,Calm,Calm,-,N/A,,Scattered Clouds,0,2012-11-04 12:15:00
6:35 AM,39.2,33.8,81,30.20,10.0,Calm,Calm,-,N/A,,Clear,0,2012-11-04 12:35:00
6:55 AM,39.2,35.6,87,30.20,7.0,Calm,Calm,-,N/A,,Scattered Clouds,0,2012-11-04 12:55:00
7:15 AM,39.2,35.6,87,30.21,7.0,Calm,Calm,-,N/A,,Mostly Cloudy,0,2012-11-04 13:15:00
7:35 AM,41.0,35.6,81,30.21,7.0,Calm,Calm,-,N/A,,Mostly Cloudy,0,2012-11-04 13:35:00
7:55 AM,41.0,35.6,81,30.20,7.0,Calm,Calm,-,N/A,,Mostly Cloudy,0,2012-11-04 13:55:00
8:15 AM,41.0,35.6,81,30.21,7.0,Calm,Calm,-,N/A,,Scattered Clouds,0,2012-11-04 14:15:00
8:35 AM,44.6,35.6,71,30.20,10.0,Calm,Calm,-,N/A,,Clear,0,2012-11-04 14:35:00
8:55 AM,46.4,35.6,66,30.20,10.0,Calm,Calm,-,N/A,,Clear,0,2012-11-04 14:55:00
9:15 AM,48.2,37.4,66,30.19,10.0,Calm,Calm,-,N/A,,Clear,0,2012-11-04 15:15:00
9:35 AM,50.0,37.4,62,30.18,10.0,South,3.5,-,N/A,,Clear,180,2012-11-04 15:35:00
9:55 AM,53.6,37.4,54,30.18,10.0,SSW,5.8,-,N/A,,Clear,200,2012-11-04 15:55:00
10:15 AM,55.4,35.6,47,30.18,10.0,SSW,6.9,-,N/A,,Clear,200,2012-11-04 16:15:00
10:35 AM,55.4,35.6,47,30.17,10.0,South,8.1,-,N/A,,Clear,170,2012-11-04 16:35:00
10:55 AM,57.2,33.8,41,30.16,10.0,South,9.2,-,N/A,,Clear,180,2012-11-04 16:55:00
11:15 AM,57.2,35.6,44,30.15,10.0,SSE,9.2,-,N/A,,Clear,160,2012-11-04 17:15:00
11:35 AM,59.0,33.8,39,30.14,10.0,South,11.5,-,N/A,,Clear,180,2012-11-04 17:35:00
11:55 AM,60.8,33.8,36,30.13,10.0,South,10.4,-,N/A,,Clear,170,2012-11-04 17:55:00
12:15 PM,60.8,35.6,39,30.11,10.0,SSE,11.5,-,N/A,,Clear,160,2012-11-04 18:15:00
12:35 PM,62.6,33.8,34,30.09,10.0,South,11.5,-,N/A,,Clear,180,2012-11-04 18:35:00
12:55 PM,62.6,35.6,37,30.08,10.0,SSE,11.5,18.4,N/A,,Clear,150,2012-11-04 18:55:00
1:15 PM,62.6,33.8,34,30.06,10.0,SSE,13.8,19.6,N/A,,Clear,150,2012-11-04 19:15:00
1:35 PM,62.6,35.6,37,30.05,10.0,SSE,13.8,18.4,N/A,,Clear,160,2012-11-04 19:35:00
1:55 PM,62.6,35.6,37,30.05,10.0,South,11.5,-,N/A,,Clear,170,2012-11-04 19:55:00
2:15 PM,62.6,35.6,37,30.04,10.0,SSE,13.8,-,N/A,,Clear,160,2012-11-04 20:15:00
2:35 PM,62.6,35.6,37,30.04,10.0,South,13.8,-,N/A,,Clear,180,2012-11-04 20:35:00
2:55 PM,62.6,33.8,34,30.04,10.0,South,12.7,-,N/A,,Clear,170,2012-11-04 20:55:00
3:15 PM,62.6,35.6,37,30.04,10.0,South,9.2,-,N/A,,Clear,170,2012-11-04 21:15:00
3:35 PM,60.8,35.6,39,30.04,10.0,SSE,10.4,-,N/A,,Clear,160,2012-11-04 21:35:00
3:55 PM,60.8,35.6,39,30.03,10.0,SSE,8.1,-,N/A,,Clear,160,2012-11-04 21:55:00
4:15 PM,60.8,35.6,39,30.03,10.0,SSE,8.1,-,N/A,,Clear,150,2012-11-04 22:15:00
4:35 PM,60.8,39.2,45,30.03,10.0,SE,6.9,-,N/A,,Light Drizzle,140,2012-11-04 22:35:00
4:55 PM,57.2,41.0,55,30.03,10.0,SE,9.2,-,N/A,Rain,Rain,140,2012-11-04 22:55:00
5:15 PM,55.4,42.8,63,30.04,10.0,SE,6.9,-,N/A,,Drizzle,140,2012-11-04 23:15:00
5:35 PM,55.4,42.8,63,30.04,10.0,SSE,5.8,-,N/A,Rain,Rain,150,2012-11-04 23:35:00
5:55 PM,53.6,44.6,72,30.05,10.0,Calm,Calm,-,N/A,Rain,Rain,0,2012-11-04 23:55:00
6:15 PM,53.6,42.8,67,30.05,10.0,Calm,Calm,-,N/A,,Drizzle,0,2012-11-05 00:15:00
6:35 PM,53.6,42.8,67,30.06,10.0,East,3.5,-,N/A,,Mostly Cloudy,80,2012-11-05 00:35:00
6:55 PM,53.6,44.6,72,30.06,10.0,East,4.6,-,N/A,,Mostly Cloudy,90,2012-11-05 00:55:00
7:15 PM,53.6,44.6,72,30.05,10.0,SSE,8.1,-,N/A,,Light Drizzle,150,2012-11-05 01:15:00
7:35 PM,53.6,42.8,67,30.04,10.0,SSE,10.4,-,N/A,,Overcast,150,2012-11-05 01:35:00
7:55 PM,53.6,42.8,67,30.04,10.0,SSE,9.2,-,N/A,Rain,Light Rain,150,2012-11-05 01:55:00
8:15 PM,53.6,44.6,72,30.04,10.0,SSE,9.2,-,N/A,,Drizzle,150,2012-11-05 02:15:00
8:35 PM,51.8,44.6,76,30.04,10.0,SSE,10.4,-,N/A,Rain,Light Rain,150,2012-11-05 02:35:00
8:55 PM,51.8,44.6,76,30.05,10.0,NW,4.6,-,N/A,,Drizzle,320,2012-11-05 02:55:00
9:15 PM,53.6,42.8,67,30.06,10.0,West,5.8,-,0.01,,Light Drizzle,270,2012-11-05 03:15:00
9:35 PM,51.8,44.6,76,30.05,10.0,Calm,Calm,-,0.01,,Light Drizzle,0,2012-11-05 03:35:00
9:55 PM,51.8,42.8,71,30.04,10.0,Calm,Calm,-,0.01,,Overcast,0,2012-11-05 03:55:00
10:15 PM,51.8,44.6,76,30.04,10.0,SSE,3.5,-,N/A,Rain,Light Rain,150,2012-11-05 04:15:00
10:35 PM,51.8,44.6,76,30.03,10.0,SSE,4.6,-,N/A,Rain,Light Rain,150,2012-11-05 04:35:00
10:55 PM,50.0,44.6,82,30.02,7.0,Calm,Calm,-,0.01,Rain,Light Rain,0,2012-11-05 04:55:00